When you browse on this site, cookies collect data to enhance your experience and personalize the content and advertising you see.
Visit our Privacy Policy to learn more. By continuing to use the site, you agree to this use of cookies and data.
  • In France
  • List of Countries
  • For 7 days
  • Water Temperature
  • Weather Map
  • Weather Widgets
  • user-avatar
    Login

    Hourly Weather Kozlowiec

    Today, 21 February, Friday

    Time Temperature Precipitation Wind Pressure Humidity
    00:00 -1°C° 0 mm 4 mps 740 mmHg 81%
    01:00 -1°C° 0 mm 5 mps 740 mmHg 81%
    02:00 -1°C° 0 mm 5 mps 739 mmHg 78%
    03:00 0°C° 0 mm 5 mps 738 mmHg 75%
    04:00 -1°C° 0 mm 6 mps 737 mmHg 73%
    05:00 -1°C° 0 mm 6 mps 737 mmHg 73%
    06:00 -1°C° 0 mm 6 mps 736 mmHg 74%
    07:00 0°C° 0 mm 5 mps 736 mmHg 68%
    14:00 0°C° 0.1 mm 8 mps 739 mmHg 80%
    15:00 +2°C° 0.1 mm 7 mps 740 mmHg 72%
    16:00 +3°C° 0.1 mm 7 mps 741 mmHg 64%
    17:00 +2°C° 0 mm 6 mps 742 mmHg 69%
    18:00 +1°C° 0 mm 5 mps 743 mmHg 75%
    19:00 0°C° 0 mm 4 mps 744 mmHg 80%
    20:00 0°C° 0 mm 4 mps 744 mmHg 83%
    21:00 0°C° 0 mm 4 mps 744 mmHg 86%
    22:00 0°C° 0 mm 4 mps 745 mmHg 89%
    23:00 -1°C° 0 mm 4 mps 745 mmHg 90%

    Tomorrow, 22 February, Saturday

    Time Temperature Precipitation Wind Pressure Humidity
    00:00 -1°C° 0 mm 4 mps 745 mmHg 91%
    01:00 0°C° 0 mm 3 mps 746 mmHg 91%
    02:00 0°C° 0 mm 3 mps 745 mmHg 92%
    03:00 -1°C° 0 mm 3 mps 745 mmHg 92%
    04:00 -1°C° 0 mm 3 mps 745 mmHg 92%
    05:00 -2°C° 0 mm 4 mps 745 mmHg 90%
    06:00 -2°C° 0 mm 4 mps 745 mmHg 88%
    07:00 -2°C° 0 mm 4 mps 745 mmHg 86%
    08:00 0°C° 0 mm 5 mps 744 mmHg 78%
    09:00 +1°C° 0 mm 6 mps 744 mmHg 71%
    10:00 +2°C° 0 mm 7 mps 743 mmHg 63%
    11:00 +3°C° 0 mm 7 mps 742 mmHg 62%
    12:00 +4°C° 0 mm 8 mps 742 mmHg 61%
    13:00 +4°C° 0 mm 8 mps 741 mmHg 60%
    14:00 +5°C° 0 mm 8 mps 740 mmHg 58%
    15:00 +5°C° 0 mm 8 mps 739 mmHg 56%
    16:00 +5°C° 0 mm 8 mps 738 mmHg 54%
    17:00 +5°C° 0 mm 8 mps 738 mmHg 55%
    18:00 +5°C° 0 mm 9 mps 738 mmHg 55%
    19:00 +5°C° 0 mm 9 mps 737 mmHg 56%
    20:00 +5°C° 0 mm 9 mps 737 mmHg 56%
    21:00 +5°C° 0 mm 9 mps 737 mmHg 56%
    22:00 +6°C° 0 mm 8 mps 736 mmHg 55%
    23:00 +5°C° 0.1 mm 8 mps 736 mmHg 63%

    Day after tomorrow, 23 February, Sunday

    Time Temperature Precipitation Wind Pressure Humidity
    00:00 +5°C° 0.1 mm 8 mps 736 mmHg 71%
    01:00 +5°C° 0.1 mm 8 mps 736 mmHg 80%
    02:00 +4°C° 1 mm 8 mps 736 mmHg 80%
    03:00 +2°C° 1 mm 8 mps 736 mmHg 80%
    04:00 +1°C° 1 mm 8 mps 736 mmHg 80%
    05:00 +2°C° 0.1 mm 7 mps 737 mmHg 80%
    06:00 0°C° 0.1 mm 7 mps 737 mmHg 80%
    07:00 0°C° 0.1 mm 7 mps 737 mmHg 80%
    08:00 +1°C° 0.1 mm 8 mps 737 mmHg 72%
    09:00 +1°C° 0.1 mm 8 mps 738 mmHg 65%
    10:00 +2°C° 0.1 mm 9 mps 738 mmHg 57%
    11:00 +2°C° 0 mm 9 mps 737 mmHg 58%
    12:00 +2°C° 0 mm 8 mps 737 mmHg 59%
    13:00 +2°C° 0 mm 8 mps 737 mmHg 60%
    14:00 +3°C° 0.2 mm 7 mps 736 mmHg 65%
    15:00 +3°C° 0.2 mm 7 mps 735 mmHg 69%
    16:00 +2°C° 0.2 mm 6 mps 734 mmHg 74%
    17:00 +2°C° 0.6 mm 5 mps 733 mmHg 81%
    18:00 +2°C° 0.6 mm 5 mps 731 mmHg 88%
    19:00 +1°C° 0.6 mm 5 mps 730 mmHg 95%
    20:00 +2°C° 2.8 mm 5 mps 728 mmHg 95%
    21:00 +3°C° 2.8 mm 5 mps 726 mmHg 95%
    22:00 +4°C° 2.8 mm 4 mps 724 mmHg 96%
    23:00 +3°C° 0.5 mm 7 mps 724 mmHg 93%

    24 February, Monday

    Time Temperature Precipitation Wind Pressure Humidity
    00:00 +2°C° 0.5 mm 10 mps 725 mmHg 90%
    01:00 0°C° 0.5 mm 12 mps 725 mmHg 88%
    02:00 0°C° 0.4 mm 12 mps 727 mmHg 87%
    03:00 -1°C° 0.4 mm 12 mps 729 mmHg 87%
    04:00 -2°C° 0.4 mm 11 mps 731 mmHg 86%
    05:00 -2°C° 0.1 mm 11 mps 733 mmHg 84%
    06:00 -2°C° 0.1 mm 10 mps 734 mmHg 82%
    07:00 -2°C° 0.1 mm 10 mps 735 mmHg 80%
    08:00 -1°C° 0.1 mm 9 mps 736 mmHg 79%
    09:00 -1°C° 0.1 mm 9 mps 737 mmHg 78%
    10:00 0°C° 0.1 mm 9 mps 738 mmHg 78%
    11:00 0°C° 0.1 mm 8 mps 739 mmHg 76%
    12:00 +1°C° 0.1 mm 8 mps 739 mmHg 74%
    13:00 +2°C° 0.1 mm 7 mps 740 mmHg 71%
    14:00 +2°C° 0 mm 6 mps 740 mmHg 70%
    15:00 +2°C° 0 mm 6 mps 741 mmHg 68%
    16:00 +2°C° 0 mm 5 mps 741 mmHg 66%
    17:00 +1°C° 0 mm 4 mps 741 mmHg 71%
    18:00 +1°C° 0 mm 4 mps 741 mmHg 75%
    19:00 +1°C° 0 mm 3 mps 741 mmHg 79%
    20:00 +1°C° 0 mm 3 mps 741 mmHg 79%
    21:00 +1°C° 0 mm 3 mps 740 mmHg 79%
    22:00 +1°C° 0 mm 3 mps 740 mmHg 79%
    23:00 0°C° 0 mm 4 mps 739 mmHg 77%

    25 February, Tuesday

    Time Temperature Precipitation Wind Pressure Humidity
    00:00 0°C° 0 mm 5 mps 738 mmHg 75%
    01:00 -1°C° 0 mm 6 mps 737 mmHg 73%
    02:00 +1°C° 0.1 mm 6 mps 736 mmHg 71%
    03:00 0°C° 0.1 mm 7 mps 735 mmHg 69%
    04:00 +2°C° 0.1 mm 7 mps 734 mmHg 67%
    05:00 +2°C° 0 mm 7 mps 733 mmHg 71%
    06:00 +3°C° 0 mm 7 mps 733 mmHg 74%
    07:00 +3°C° 0 mm 7 mps 732 mmHg 78%
    08:00 +4°C° 0.1 mm 7 mps 732 mmHg 79%
    09:00 +4°C° 0.1 mm 7 mps 731 mmHg 81%
    10:00 +4°C° 0.1 mm 7 mps 731 mmHg 83%
    11:00 +5°C° 0.2 mm 7 mps 731 mmHg 82%
    12:00 +5°C° 0.2 mm 7 mps 731 mmHg 81%
    13:00 +5°C° 0.2 mm 7 mps 730 mmHg 81%
    14:00 +5°C° 0 mm 6 mps 730 mmHg 81%
    15:00 +7°C° 0 mm 6 mps 729 mmHg 81%
    16:00 +7°C° 0 mm 6 mps 729 mmHg 81%
    17:00 +7°C° 0.3 mm 6 mps 729 mmHg 83%
    18:00 +5°C° 0.3 mm 6 mps 729 mmHg 85%
    19:00 +5°C° 0.3 mm 6 mps 729 mmHg 86%
    20:00 +6°C° 0.4 mm 5 mps 728 mmHg 87%
    21:00 +6°C° 0.4 mm 5 mps 728 mmHg 87%
    22:00 +5°C° 0.4 mm 5 mps 728 mmHg 87%
    23:00 +5°C° 0.5 mm 5 mps 728 mmHg 85%

    26 February, Wednesday

    Time Temperature Precipitation Wind Pressure Humidity
    00:00 +4°C° 0.5 mm 4 mps 728 mmHg 83%
    01:00 +4°C° 0.5 mm 4 mps 727 mmHg 81%
    02:00 +3°C° 0.1 mm 4 mps 727 mmHg 83%
    03:00 +3°C° 0.1 mm 4 mps 726 mmHg 85%
    04:00 +1°C° 0.1 mm 4 mps 726 mmHg 87%
    05:00 +1°C° 0.1 mm 4 mps 726 mmHg 86%
    06:00 +1°C° 0.1 mm 4 mps 726 mmHg 85%
    07:00 0°C° 0.1 mm 4 mps 725 mmHg 84%
    08:00 +1°C° 0 mm 5 mps 725 mmHg 78%
    09:00 +2°C° 0 mm 6 mps 725 mmHg 72%
    10:00 +3°C° 0 mm 7 mps 725 mmHg 66%
    11:00 +4°C° 0 mm 7 mps 724 mmHg 59%
    12:00 +5°C° 0 mm 8 mps 724 mmHg 51%
    13:00 +5°C° 0 mm 8 mps 723 mmHg 44%
    14:00 +5°C° 0 mm 7 mps 723 mmHg 43%
    15:00 +5°C° 0 mm 6 mps 723 mmHg 43%
    16:00 +5°C° 0 mm 5 mps 723 mmHg 42%
    17:00 +3°C° 0 mm 5 mps 723 mmHg 47%
    18:00 +3°C° 0 mm 4 mps 723 mmHg 53%
    19:00 +2°C° 0 mm 3 mps 724 mmHg 58%
    20:00 0°C° 0.4 mm 4 mps 724 mmHg 68%
    21:00 0°C° 0.4 mm 4 mps 724 mmHg 78%
    22:00 -1°C° 0.4 mm 5 mps 724 mmHg 88%
    23:00 -1°C° 0.1 mm 5 mps 725 mmHg 90%
    Show more